Regional Weather Roundup
Issued by NWS Sioux Falls, SD

Home | Current Version | Previous Version | Text Only | Print | Product List | Glossary Off
Versions: 1 2 3 4 5 6 7 8 9 10 11 12 13 14 15 16 17 18 19 20 21 22 23 24 25 26 27 28 29 30 31 32 33 34 35 36 37 38 39 40 41 42 43 44 45 46 47 48 49 50

000
ASUS43 KFSD 011702
RWRFSD

WEATHER ROUNDUP FOR SE SOUTH DAKOTA/SW MINNESOTA/NW IOWA
NATIONAL WEATHER SERVICE SIOUX FALLS SD
1200 PM CDT MON SEP 01 2014

NOTE: "FAIR" INDICATES FEW OR NO CLOUDS BELOW 12,000 FEET WITH NO
SIGNIFICANT WEATHER AND OR OBSTRUCTIONS TO VISIBILITY.


SDZ038>040-050-052>070-011800-
SOUTHEAST SOUTH DAKOTA

CITY           SKY/WX    TMP DP  RH WIND       PRES   REMARKS
CHAMBERLAIN    SUNNY     69  57  65 W7        29.88S
HURON          SUNNY     72  55  55 NW5       29.84R
MADISON        FAIR      72  63  73 W9        29.85R
MITCHELL       SUNNY     72  61  68 W8        29.86R
SIOUX FALLS    MOSUNNY   73  61  65 W8        29.85R
WINNER         FAIR      73  54  51 W6        29.90R
YANKTON        SUNNY     72  63  73 W13       29.85S
$$

MNZ071-072-080-081-089-090-097-098-011800-
SOUTHWEST MINNESOTA

CITY           SKY/WX    TMP DP  RH WIND       PRES   REMARKS
FAIRMONT       MOSUNNY   72  59  64 NW9       29.79S
JACKSON        PTSUNNY   72  61  68 W8        29.82R
LUVERNE        MOSUNNY   73  61  64 W10       29.85R
MARSHALL       SUNNY     73  55  53 NW10      29.79R
MONTEVIDEO     SUNNY     73  64  73 N8        29.79R
PIPESTONE      MOSUNNY   72  61  68 W6        29.83R
REDWOOD FALLS  SUNNY     73  57  57 N13       29.78R
TRACY          SUNNY     73  61  64 NW7       29.81R
WINDOM         SUNNY     73  61  64 W7        29.81R
WORTHINGTON    MOSUNNY   72  59  64 W8        29.84R
$$

IAZ001>003-012>014-020>022-031-032-NEZ013-014-SDZ071-011800-
NORTHWEST IOWA

CITY           SKY/WX    TMP DP  RH WIND       PRES   REMARKS
CHEROKEE       MOSUNNY   72  63  72 NW8       29.84R
DENISON        MOSUNNY   72  64  78 W9        29.84R
ESTHERVILLE    MOSUNNY   71  61  70 NW6G17    29.81R
LE MARS        MOSUNNY   73  64  73 NW6G13    29.86R
ORANGE CITY    MOSUNNY   73  63  68 W9        29.85R
SIOUX CITY     MOSUNNY   74  64  71 W8        29.85S
SPENCER        MOSUNNY   74  62  66 NW10      29.83R
STORM LAKE     PTSUNNY   70  70 100 NW8       29.84R
$$

ABBREVIATIONS USED IN REMARKS
   TC - TEMPERATURE IN CELSIUS
  WCI - WIND CHILL INDEX
   HX - HEAT INDEX
  VSB - VISIBILITY




USA.gov is the U.S. government's official web portal to all federal, state and local government web resources and services.